Погода в Подгорной

Россия / Краснодарский край     44°13′06″N   41°17′23″E
темп.,
°C
ветер,
м/с
пор.,
м/с
влажн.,
%
обл.,
%
осадки,
мм/ч
давл.,
гПа
погр.,
м
21 апреля, ср
ср2100:00+10в2487100 0.0 1013293
03:00+8всв229058 1.1 101412
06:00+8всв2392100 3.5 1016292
09:00+8в2491100 4.2 1018504
12:00+8св2397100 1.3 1020389
15:00+8в2296100 1.6 1020260
18:00+8вюв2394100 0.0 1021268
21:00+7вюв2594100 0.0 1022281
22 апреля, чт
чт2200:00+6ююв1195100 0.0 102111
03:00+6ю1193100 0.0 102110
06:00+7сз009380 0.0 102110
09:00+10с118576 0.0 1021483
12:00+11св3382100 0.1 1021553
15:00+11всв2284100 0.6 1021619
18:00+10с1194100 1.1 1021116
21:00+9зюз2497100 11.8 1022371
23 апреля, пт
пт2300:00+8зюз2494100 1.9 1022244
03:00+6зюз22925 2.0 102334
06:00+6зюз239250 0.0 102472
09:00+11зсз22720 0.1 1023717
12:00+14ссз335545 0.0 10211580
15:00+14с3358100 0.1 10211152
18:00+12св237386 0.0 1021351
21:00+8вюв2282100 0.0 102015
24 апреля, сб
сб2400:00+8юв1178100 0.0 101810
03:00+8юз2276100 0.0 101836
06:00+8зюз2381100 0.1 101968
09:00+12ююв025812 0.1 1019805
12:00+15с335666 0.0 10171233
15:00+15ссз555621 0.5 10181248
18:00+13ссв347132 0.0 1018305
21:00+10ссз1176100 0.0 102014
25 апреля, вс
вс2500:00+7сз1191100 0.0 102112
03:00+7ссз1193100 0.0 102157
06:00+7с1295100 0.0 1021396
09:00+7ссв2294100 0.1 1020390
12:00+5с3394100 2.6 1020333
15:00+5св2295100 4.4 1020345
18:00+5всв2396100 0.4 1018404
21:00+5св1297100 1.6 1019234